Regional Weather Roundup
Issued by NWS

Home | Current Version | Previous Version | Graphics & Text | Print | Product List | Glossary On
Versions: 1 2 3 4 5 6 7 8 9 10 11 12 13 14 15 16 17 18 19 20 21 22 23 24 25 26 27 28 29 30 31 32 33 34 35 36 37 38 39 40 41 42 43 44 45 46 47 48 49 50
920
ASUS44 KLIX 180210
RWRLA
LOUISIANA WEATHER ROUNDUP
NATIONAL WEATHER SERVICE NEW ORLEANS LA
900 PM CDT THU APR 17 2014

NOTE: "FAIR" INDICATES FEW OR NO CLOUDS BELOW 12,000 FEET WITH NO
      SIGNIFICANT WEATHER AND/OR OBSTRUCTIONS TO VISIBILITY.
      SKY/WX - SKY CONDITION AND SIGNIFICANT WEATHER.
      TMP - AIR TEMPERATURE.    DP   - DEWPOINT TEMPERATURE.
      RH  - RELATIVE HUMIDITY.  PRES - PRESSURE.
      HX  - HEAT INDEX.         WCI  - WIND CHILL INDEX.

*  THESE STATIONS ARE NOT NWS OR FAA STATIONS AND ARE NOT UNDER
   NWS QUALITY CONTROL.

LAZ040-048-061>063-065-066-069-180300-
SOUTHEAST LOUISIANA

CITY           SKY/WX    TMP DP  RH WIND       PRES   REMARKS
N.O. AUDUBON     N/A     65  31  28 MISG        N/A
N.O. INTL ARPT CLOUDY    64  59  83 E12       30.12S
N.O. LAKEFRONT CLOUDY    63  59  87 E15       30.12S
N.O. DOWNTOWN* CLOUDY    63  55  77 E3        30.12S
SLIDELL        CLOUDY    62  59  90 E3        30.11F
BATON ROUGE    CLOUDY    64  57  78 NE6       30.13S
BOOTHVILLE     LGT RAIN  63  61  93 E17       30.12R FOG
BELLE CHASSE   CLOUDY    63  59  87 NE6       30.12R
BOGALUSA*        N/A     63  57  79 CALM      30.16R
GALLIANO*      CLOUDY    64  61  91 NE9       30.10S
NEW ROADS*     CLOUDY    62  58  86 N5        30.14S
GONZALES*      CLOUDY    63  60  89 NE3       30.11S
HAMMOND*       CLOUDY    63  57  82 CALM      30.15R
HOUMA*           N/A     64  60  88 E10G16    30.10R
PORT FOURCHON* PTCLDY    64  63  94 E15       30.10R

$$

LAZ041-044-053-054-180300-
SOUTHWEST LOUISIANA

CITY           SKY/WX    TMP DP  RH WIND       PRES   REMARKS
LAKE CHARLES   CLOUDY    59  55  87 NE6       30.12S
LAFAYETTE      CLOUDY    62  58  86 NE5       30.12F
PATTERSON      CLOUDY    63  59  88 NE9         N/A
SALT POINT       N/A     66  61  84 VRB3      30.08F
NEW IBERIA     CLOUDY    64  58  80 NE8       30.12F
CHENAULT AIRPK MOCLDY    61  55  82 N5        30.14

$$

LAZ027-028-180300-
CENTRAL LOUISIANA

CITY           SKY/WX    TMP DP  RH WIND       PRES   REMARKS
FORT POLK      MOCLDY    56  52  86 NE3       30.15R
ALEXANDRIA INT CLOUDY    59  55  87 N3        30.14R
ALEXANDRIA     CLOUDY    59  56  89 CALM      30.15R

$$

LAZ001-002-180300-
NORTHWEST LOUISIANA

CITY           SKY/WX    TMP DP  RH WIND       PRES   REMARKS
SHREVEPORT     PTCLDY    61  49  64 SE3       30.17R
BARKSDALE AFB  PTCLDY    60  48  65 CALM      30.17R
DTN SHREVEPORT MOCLDY    61  48  62 CALM      30.17R

$$

LAZ014-016-180300-
NORTHEAST LOUISIANA

CITY           SKY/WX    TMP DP  RH WIND       PRES   REMARKS
MONROE         CLOUDY    60  53  77 E3        30.18S
TALLULAH       CLOUDY    63  56  78 CALM      30.18S

$$




USA.gov is the U.S. government's official web portal to all federal, state and local government web resources and services.